Location: Lafig�re
(44.4503°N, 4.0357°E)
Time: 01:30:49
(UTC+00:00)

Transit 4A - Pass Details

Date: 27 January 2021
Orbit: 866 x 979 km, 66.8° (Epoch: 24 February)

Event Time Altitude Azimuth Distance (km) Brightness Sun altitude
Rises 19:53:43 0° 257° (WSW) 3,674 12.0 -33.4°
Reaches altitude 10° 19:56:54 10° 272° (W) 2,728 11.1 -34.0°
Maximum altitude 20:01:49 23° 322° (NW) 1,951 9.9 -34.8°
Enters shadow 20:04:22 18° 354° (N) 2,179 9.9 -35.3°
Drops below altitude 10° 20:06:44 10° 13° (NNE) 2,709 - -35.7°
Sets 20:09:54 0° 28° (NNE) 3,642 - -36.2°
